Temp
18 17 17 18 18 18 19 19 19 19 19 19 19 19 19 19 19 18 18 18 18 18 18 17 17 17 16 16 16 16 15 15 15 15 15 15 15 15 15 15 15 14 14 14 14 14 14 14 14 14 14 14 14 14 14 14 14 14 14 14 14 14 14 14 13 13 14 14 14 14 14 14 14 14 14 14 14 15 15 15 15 15 15 15 15
17 17 17 18 18 18 18 19 19 19 19 19 19 19 19 19 19 18 18 18 18 18 18 18 17 17 17 16 16 16 16 15 15 15 15 15 15 15 15 15 15 14 14 14 14 14 14 14 14 14 14 14 14 14 14 14 14 14 14 14 14 14 14 14 14 13 13 14 14 13 13 13 13 14 14 14 14 14 14 14 15 15 15 15 15
16 16 16 17 17 17 17 18 18 18 19 18 18 18 18 18 18 18 18 18 18 18 17 17 17 16 16 16 16 16 16 16 16 15 15 15 15 15 15 15 15 15 15 14 14 14 14 14 14 14 14 14 14 14 14 14 14 14 14 14 14 14 14 14 14 13 13 13 13 13 13 13 13 13 13 13 14 14 14 14 14 14 15 15 15
16 16 16 16 16 16 16 16 16 17 17 17 17 17 17 18 18 18 18 18 18 17 17 17 16 16 16 16 16 15 15 15 15 15 15 15 15 15 15 15 15 15 15 15 14 14 14 14 14 14 13 14 14 13 13 13 13 13 13 14 13 13 13 13 13 13 12 12 13 13 13 13 13 13 13 13 13 14 14 14 14 14 14 14 15
16 16 16 15 15 15 16 16 16 16 16 16 17 17 17 17 17 17 17 17 17 17 16 16 16 16 16 16 16 15 15 15 15 15 15 15 15 15 15 15 15 15 15 15 14 14 14 14 14 14 13 13 13 13 13 13 13 13 13 13 13 13 13 13 13 12 12 12 12 12 12 12 12 13 13 13 13 14 14 14 14 14 14 14 14
17 16 16 16 15 15 16 16 16 16 16 16 17 17 17 17 17 17 17 17 17 17 17 17 17 17 16 16 16 15 15 15 15 15 15 15 15 15 15 15 15 15 15 15 15 14 14 14 14 14 13 13 13 13 13 13 13 13 12 12 12 12 12 12 12 12 12 12 12 12 12 12 12 12 13 13 13 13 13 14 14 14 14 14 14
17 16 16 16 16 16 16 16 16 16 16 16 16 17 17 17 17 17 17 17 16 16 16 16 16 16 16 16 16 15 15 15 15 15 15 15 15 15 15 15 15 15 15 15 15 14 14 14 14 13 13 13 13 13 12 12 12 12 12 12 12 11 11 11 11 11 11 11 11 11 11 11 12 12 12 12 13 13 13 12 12 12 13 13 13
17 17 16 16 16 16 16 16 16 16 16 16 16 16 16 16 17 17 16 16 16 16 15 15 16 16 16 16 16 16 15 15 14 14 15 15 15 15 15 15 15 15 15 15 15 14 14 14 13 13 13 13 13 13 12 12 12 12 12 11 11 11 11 11 10 10 10 10 10 10 10 10 11 11 11 11 12 11 11 11 10 11 11 12 12
17 17 17 17 17 17 17 16 17 17 17 17 16 16 16 17 17 16 16 16 16 16 15 15 15 15 15 15 16 16 15 15 15 15 15 15 15 15 15 15 15 15 15 15 14 14 14 14 13 13 13 13 13 13 12 12 12 12 11 11 11 11 10 10 10 10 9 9 9 9 9 9 10 10 10 10 10 9 10 10 10 10 10 10 11
17 17 17 17 17 17 17 17 17 17 17 17 17 17 17 17 17 17 17 16 16 16 16 16 15 15 15 15 15 15 15 15 15 15 15 15 15 14 15 15 15 15 15 14 14 14 14 13 13 13 13 13 12 12 12 12 11 11 11 11 10 10 10 9 9 9 9 8 8 8 8 8 8 8 8 9 9 9 9 9 8 8 9 9 9
16 16 17 17 17 17 17 17 17 17 17 17 17 17 17 17 17 17 17 16 16 16 16 16 16 15 15 15 15 15 15 15 15 15 15 15 14 14 14 14 14 15 15 14 14 14 13 13 13 13 13 12 12 12 12 11 11 11 10 10 10 9 9 9 9 8 8 8 8 8 7 7 7 8 8 8 8 8 8 8 7 7 7 6 7
16 16 16 16 17 17 17 17 17 17 17 17 17 17 17 17 16 16 16 16 16 16 16 16 16 16 15 15 15 15 15 15 15 15 15 15 15 14 14 14 14 14 14 14 14 13 13 13 13 12 12 12 12 12 11 11 11 10 10 10 9 9 9 8 8 8 8 7 7 7 7 7 7 7 7 7 7 7 7 7 7 6 6 5 5
16 16 16 16 16 16 16 17 17 17 17 17 17 17 16 16 16 16 16 16 16 16 16 16 16 16 16 16 15 15 15 15 15 15 15 15 15 14 14 14 13 13 14 14 14 13 13 12 12 12 12 11 11 11 11 10 10 10 10 9 9 9 8 8 8 7 7 7 7 6 7 6 6 6 7 7 7 7 6 6 6 6 6 5 5
16 16 16 16 16 16 16 16 16 16 16 16 16 16 16 16 16 16 16 16 16 16 16 16 16 16 16 16 16 15 15 15 15 15 15 15 14 14 13 13 13 13 14 13 13 13 12 12 12 11 11 11 11 10 10 10 10 9 9 9 9 8 8 8 8 7 7 7 6 6 6 6 6 6 6 6 6 6 6 6 6 6 5 5 5
16 16 16 16 16 16 16 16 16 16 16 16 16 16 16 16 16 16 16 16 16 16 16 16 16 16 16 16 16 15 15 15 15 15 15 15 14 13 13 13 13 13 13 13 12 12 12 12 11 11 11 10 10 10 10 10 9 9 9 9 8 8 8 8 7 7 7 6 6 6 6 6 5 5 5 5 5 5 5 5 5 5 5 5 5
16 16 16 16 16 16 16 16 16 16 16 16 16 16 15 15 15 15 15 15 15 15 15 15 15 15 15 15 15 15 15 15 15 15 15 14 13 13 13 13 13 12 12 12 11 11 11 11 10 10 10 10 10 10 9 9 9 9 9 8 8 8 8 7 7 6 6 6 6 5 5 5 5 5 4 4 4 4 4 4 5 5 4 4 4
16 16 16 16 16 16 16 16 16 16 16 15 15 15 15 15 15 15 15 15 15 15 15 15 15 15 15 15 15 15 15 15 15 15 14 13 13 13 13 12 12 11 11 11 11 11 10 10 10 10 10 9 9 9 9 9 9 8 8 8 7 7 7 6 6 5 5 5 5 5 5 5 5 5 4 4 4 4 4 3 4 4 3 3 3
15 15 15 15 15 15 15 15 15 15 15 15 15 15 15 15 15 15 15 15 15 15 15 14 14 14 14 15 15 14 14 14 14 14 14 13 12 12 12 11 11 10 10 10 10 10 10 10 10 9 9 9 9 9 9 8 8 7 7 6 6 6 5 5 5 4 4 4 5 5 5 4 4 4 4 4 4 4 3 3 3 3 3 2 3
15 15 15 15 15 15 15 15 15 15 15 15 15 15 15 15 15 14 14 14 14 14 14 14 14 13 13 14 14 13 13 13 12 13 13 12 12 12 11 11 10 10 10 10 10 9 9 9 9 9 9 9 9 8 8 7 7 6 5 5 5 4 4 4 4 3 3 3 3 3 3 3 3 3 3 2 2 2 2 2 2 2 2 2 2
14 14 14 14 14 14 14 14 14 14 14 14 14 14 14 14 14 14 14 14 14 14 13 13 12 12 12 12 12 12 12 12 11 11 11 11 11 11 10 10 10 9 9 9 9 9 9 9 9 8 8 8 8 7 6 6 5 5 5 4 4 4 4 3 3 3 2 2 2 2 1 1 1 1 1 1 1 1 1 2 2 2 2 2 2
14 14 14 14 14 14 14 14 14 14 14 14 14 14 14 14 14 14 14 13 13 13 12 11 11 11 11 11 11 10 11 10 10 10 10 10 10 10 9 9 9 9 9 9 9 8 8 8 7 7 7 7 6 6 5 5 5 5 4 4 4 3 3 3 2 2 2 2 2 1 1 1 1 1 1 1 1 1 1 1 1 2 2 2 2
14 14 14 14 14 14 14 13 13 13 13 13 13 13 13 13 13 13 13 13 13 12 11 10 10 10 9 9 9 9 9 9 9 9 9 9 9 9 9 8 8 8 8 8 8 8 7 6 6 6 6 6 5 5 5 5 5 4 4 4 3 3 3 2 2 2 2 2 1 1 1 1 1 1 1 1 1 2 2 2 1 1 2 2 2
13 13 13 13 13 13 13 13 13 13 13 13 13 13 13 13 13 13 13 13 12 11 10 10 10 9 9 8 8 8 8 8 8 8 8 8 8 8 8 8 8 8 8 7 7 7 6 5 5 5 5 5 5 5 5 4 4 4 3 3 3 3 2 2 2 2 2 2 1 1 1 1 1 1 1 1 1 2 2 2 2 2 2 2 2
13 13 13 13 13 13 13 13 13 13 12 12 12 12 12 12 12 13 13 13 12 10 9 9 9 8 8 7 7 7 7 7 7 7 7 8 8 8 8 7 7 7 7 6 6 5 5 5 4 4 4 4 5 5 4 4 4 4 3 3 3 3 2 2 2 2 2 1 1 1 1 1 1 1 1 1 1 1 1 1 2 2 2 2 2
13 13 12 12 12 12 12 12 12 12 12 12 12 12 12 12 12 12 12 12 11 9 8 8 8 8 7 7 7 7 7 7 7 7 7 7 7 7 7 7 6 6 6 5 5 4 4 4 4 4 4 4 4 4 4 4 4 3 3 3 2 2 2 2 2 2 1 1 1 1 1 1 1 1 1 2 1 1 1 1 1 1 2 2 2
12 12 12 12 12 11 11 12 11 11 11 11 11 11 11 11 11 11 11 11 10 9 8 8 8 7 7 7 6 6 6 6 6 7 7 7 7 7 6 6 5 5 5 4 4 4 4 4 4 4 4 4 4 4 4 3 3 3 2 2 2 2 2 2 1 1 1 1 1 1 1 1 1 1 1 1 1 1 1 1 1 1 1 1 1
11 11 11 11 11 11 11 11 11 11 11 11 11 11 11 11 11 11 11 10 9 8 8 8 7 6 6 6 6 6 6 6 6 6 6 6 6 5 5 5 5 5 4 4 4 4 4 4 4 4 4 4 3 3 3 3 2 2 2 2 2 2 2 1 1 1 1 1 1 1 1 1 1 1 0 0 0 0 0 1 1 1 1 1 1
10 10 10 10 10 10 10 10 10 10 10 9 10 10 10 10 10 10 10 10 9 8 8 7 7 6 6 5 5 5 6 6 6 6 6 5 5 5 5 5 5 4 4 4 4 4 4 4 4 4 3 3 3 3 2 2 2 2 2 2 2 1 1 1 1 1 1 1 1 0 0 0 0 0 -0 -0 -0 -0 -0 -0 -0 0 0 0 0
10 9 9 9 9 9 9 9 9 9 9 8 9 9 9 9 9 10 10 9 9 9 8 8 7 7 6 6 6 5 5 5 5 5 5 5 5 5 5 5 5 4 4 4 4 4 4 3 3 3 3 3 2 2 2 2 1 1 1 1 1 1 1 1 0 0 0 0 -0 -0 -0 -0 -1 -1 -1 -1 -1 -1 -1 -1 -1 -1 -0 -0 -0
8 8 8 8 8 8 8 8 7 7 7 7 7 7 7 8 8 9 9 9 8 8 8 8 7 7 6 6 6 6 5 5 5 5 5 5 5 5 5 5 4 4 4 4 4 4 3 3 3 2 2 2 2 1 1 1 1 1 0 0 0 0 0 -0 -0 -0 -1 -1 -1 -1 -1 -1 -1 -1 -1 -1 -1 -1 -1 -1 -1 -1 -1 -1 -1
7 7 7 6 6 6 6 6 6 6 6 7 7 6 6 6 7 7 7 8 8 7 7 7 7 6 6 6 5 6 5 5 5 5 5 5 5 5 5 5 4 4 4 4 4 3 3 2 2 2 2 1 1 1 1 0 0 -0 -0 -0 -0 -0 -1 -1 -1 -1 -1 -1 -1 -2 -2 -2 -2 -2 -2 -2 -2 -2 -2 -2 -2 -1 -1 -1 -1
6 6 5 5 5 5 5 5 5 5 5 6 6 6 6 5 5 5 6 6 6 6 6 6 6 6 6 6 5 5 5 5 5 5 5 5 5 5 4 4 4 4 4 3 3 2 2 2 2 1 1 1 1 0 0 0 0 -0 -0 -1 -1 -1 -1 -1 -1 -1 -2 -2 -2 -2 -2 -2 -2 -2 -2 -2 -2 -2 -2 -2 -2 -2 -2 -2 -1
5 4 4 4 4 4 4 4 4 4 4 4 4 5 5 5 4 3 4 5 5 6 6 6 6 6 6 6 6 6 6 5 5 5 5 5 4 4 4 4 4 4 4 3 3 2 2 2 1 1 1 1 0 0 0 -0 -0 -0 -1 -1 -1 -1 -1 -2 -2 -2 -2 -2 -3 -2 -2 -2 -2 -2 -2 -2 -2 -2 -2 -2 -2 -2 -2 -2 -2
4 4 4 4 3 3 3 3 3 3 3 3 3 3 3 3 3 3 3 3 4 4 5 5 6 6 6 5 6 6 6 5 5 5 5 4 4 4 4 4 4 4 3 3 2 2 2 1 1 1 1 0 0 0 -0 -0 -1 -1 -1 -1 -2 -2 -2 -2 -2 -3 -3 -3 -3 -3 -3 -2 -2 -2 -2 -2 -2 -2 -2 -2 -2 -2 -2 -2 -2
4 4 4 4 4 3 3 3 3 3 3 2 2 2 2 2 3 3 3 3 3 3 4 5 5 5 5 5 5 5 5 5 5 5 5 5 4 4 4 4 4 3 3 2 2 2 1 1 1 1 0 0 -0 -0 -0 -1 -1 -1 -1 -2 -2 -2 -2 -3 -3 -3 -3 -3 -3 -3 -3 -3 -2 -2 -2 -2 -2 -2 -2 -2 -2 -2 -2 -2 -2
4 4 4 4 4 3 3 3 3 3 2 2 2 2 2 3 3 3 4 4 4 3 4 4 4 5 5 5 5 5 5 5 5 5 5 5 4 4 4 3 3 3 2 2 2 1 1 1 0 0 0 -0 -0 -1 -1 -1 -1 -2 -2 -2 -3 -3 -3 -3 -3 -3 -3 -3 -3 -3 -3 -3 -3 -2 -2 -2 -2 -2 -2 -2 -2 -2 -2 -2 -2
4 4 4 4 3 3 3 3 3 3 3 3 3 4 4 4 4 5 5 5 4 4 4 4 4 4 4 5 5 5 5 5 4 4 4 4 4 4 4 3 3 2 2 1 1 1 1 0 0 -0 -0 -0 -0 -1 -1 -1 -2 -2 -3 -3 -3 -3 -3 -3 -3 -3 -3 -3 -3 -3 -3 -3 -3 -3 -3 -3 -2 -2 -2 -2 -2 -2 -2 -2 -2
4 4 4 4 4 3 3 3 3 3 4 4 4 5 5 5 5 5 5 5 4 4 4 5 5 5 5 5 5 5 5 5 5 4 4 4 4 3 3 3 2 2 1 1 1 0 0 -0 -0 -0 -0 -1 -1 -1 -1 -2 -2 -3 -3 -3 -3 -3 -3 -3 -3 -3 -3 -3 -3 -3 -3 -3 -3 -3 -3 -3 -3 -2 -2 -2 -2 -2 -2 -2 -2
5 4 4 4 4 4 4 4 4 4 4 5 5 5 5 5 5 5 5 4 4 4 4 5 5 5 5 5 5 5 4 4 4 4 4 4 3 3 3 2 2 1 1 0 0 -0 -0 -1 -1 -1 -1 -1 -1 -1 -2 -2 -2 -3 -3 -3 -3 -3 -3 -3 -3 -3 -3 -3 -3 -3 -3 -3 -3 -3 -3 -3 -3 -3 -2 -2 -2 -2 -2 -2 -2
5 4 4 4 5 4 4 4 4 5 5 5 5 5 5 5 5 5 5 5 4 4 4 5 5 5 5 5 5 5 4 4 4 4 3 3 3 3 2 2 1 1 0 0 -0 -0 -1 -1 -1 -1 -1 -1 -1 -1 -2 -2 -2 -3 -3 -3 -3 -3 -3 -3 -3 -3 -3 -3 -3 -3 -3 -3 -3 -3 -3 -3 -3 -2 -2 -2 -2 -2 -2 -2 -2
5 4 5 5 5 5 5 4 4 5 5 6 6 6 6 6 6 5 5 5 5 5 5 5 5 5 5 5 5 4 4 4 4 3 3 3 2 2 1 1 1 0 -0 -0 -0 -1 -1 -1 -1 -1 -1 -1 -1 -2 -2 -2 -3 -3 -3 -3 -3 -3 -3 -3 -3 -3 -3 -3 -3 -3 -3 -3 -3 -3 -3 -3 -2 -2 -2 -2 -2 -2 -2 -2 -2
5 5 5 5 5 5 5 4 5 5 6 6 6 6 6 7 7 6 5 5 5 5 5 5 5 4 4 4 4 4 4 4 3 3 3 2 2 1 1 1 0 -0 -1 -1 -1 -1 -1 -1 -1 -1 -1 -1 -1 -2 -2 -2 -2 -3 -3 -3 -3 -3 -3 -3 -3 -3 -3 -3 -3 -3 -3 -3 -3 -3 -2 -2 -2 -2 -2 -2 -2 -2 -2 -1 -1
5 5 5 5 5 5 5 5 5 6 6 6 6 6 6 6 6 6 5 5 4 4 4 4 4 4 4 4 4 4 3 3 3 2 2 2 1 1 0 -0 -0 -1 -1 -1 -1 -1 -2 -1 -1 -1 -1 -1 -1 -1 -2 -2 -2 -3 -3 -3 -3 -3 -3 -3 -3 -3 -3 -3 -3 -3 -3 -2 -2 -2 -2 -2 -2 -2 -2 -2 -2 -1 -1 -1 -1
5 5 5 5 6 6 6 6 6 5 5 5 5 5 5 5 5 5 5 4 4 4 4 4 4 4 4 4 3 3 3 3 2 2 2 1 1 0 -0 -1 -1 -1 -1 -2 -2 -2 -1 -1 -1 -1 -1 -1 -1 -1 -1 -2 -2 -2 -3 -3 -3 -3 -3 -3 -3 -3 -3 -3 -3 -3 -2 -2 -2 -2 -2 -2 -2 -2 -2 -2 -1 -1 -1 -1 -1
5 5 5 5 6 6 5 5 5 5 5 5 5 5 5 5 5 5 5 5 4 4 4 4 4 3 3 3 3 3 2 2 2 1 1 1 0 -0 -1 -1 -1 -2 -2 -2 -2 -2 -1 -1 -1 -1 -1 -1 -1 -1 -1 -1 -1 -2 -2 -2 -3 -3 -2 -2 -2 -2 -2 -2 -2 -2 -2 -2 -2 -2 -2 -2 -2 -2 -2 -1 -1 -1 -1 -1 -1
5 5 5 5 5 5 5 5 5 5 5 5 5 5 5 5 5 5 5 4 4 4 3 3 3 3 2 2 2 2 2 1 1 1 0 -0 -1 -1 -2 -2 -2 -2 -2 -2 -2 -1 -1 -1 -1 -1 -1 -1 -1 -1 -1 -1 -1 -1 -1 -2 -2 -2 -2 -2 -2 -2 -2 -2 -2 -2 -2 -2 -2 -2 -2 -2 -1 -1 -1 -1 -1 -0 -0 -1 -1
5 5 5 5 4 4 4 5 5 4 4 4 4 4 4 4 4 4 4 4 3 3 3 2 2 2 1 1 1 1 1 0 -0 -0 -1 -1 -1 -2 -2 -3 -3 -3 -2 -2 -1 -1 -1 -1 -1 -1 -0 -1 -1 -1 -1 -1 -0 -0 -1 -1 -1 -1 -1 -1 -2 -2 -2 -2 -2 -1 -2 -2 -1 -1 -1 -1 -1 -1 -1 -1 -1 -0 -0 -1 -1
4 4 4 4 4 4 4 4 4 4 4 4 4 4 3 3 3 3 3 2 2 1 1 1 1 1 0 0 0 0 0 -0 -1 -1 -1 -2 -2 -3 -3 -4 -4 -3 -2 -2 -1 -1 -0 -0 -0 -0 -0 -1 -1 -1 -1 -0 -0 -0 -0 -1 -1 -1 -1 -1 -1 -2 -2 -1 -1 -1 -1 -1 -1 -1 -1 -1 -1 -1 -1 -1 -1 -1 -1 -1 -1
4 4 4 4 4 4 4 4 4 3 3 3 3 3 2 2 2 1 1 1 1 0 -0 -0 -0 -0 -1 -1 -1 -1 -1 -1 -1 -2 -2 -2 -3 -4 -4 -4 -4 -3 -2 -1 -1 -1 -0 -0 -0 -0 -0 -1 -1 -1 -1 -0 -0 -0 -0 -0 -1 -0 -0 -0 -1 -1 -1 -1 -1 -1 -1 -1 -1 -1 -1 -1 -1 -1 -1 -1 -1 -1 -1 -1 -1
3 3 3 3 3 3 3 3 3 3 2 2 2 1 1 1 0 0 -0 -0 -1 -1 -1 -1 -2 -2 -2 -2 -2 -2 -2 -2 -2 -3 -3 -3 -4 -4 -5 -4 -4 -3 -2 -1 -1 -1 -1 -0 -0 -1 -1 -1 -1 -1 -1 -0 -0 0 0 -0 -0 -0 -0 -0 -0 -1 -1 -1 -1 -1 -1 -1 -1 -1 -1 -1 -1 -1 -1 -1 -1 -1 -1 -1 -1
2 3 3 3 3 2 2 2 2 1 1 1 0 0 -0 -0 -1 -1 -1 -1 -2 -2 -2 -2 -3 -3 -3 -3 -3 -4 -3 -3 -3 -4 -4 -4 -4 -5 -5 -4 -4 -3 -2 -1 -1 -1 -1 -1 -1 -1 -1 -1 -1 -1 -0 -0 0 0 0 0 0 0 -0 -0 -0 -0 -1 -1 -1 -1 -1 -1 -1 -1 -1 -1 -1 -1 -1 -1 -1 -1 -1 -1 -1
Height
786 790 794 796 796 799 802 804 804 804 804 804 805 806 808 809 810 811 812 813 813 814 816 817 818 820 822 824 825 826 827 828 829 830 831 832 832 832 832 832 832 832 832 833 833 833 833 833 833 832 832 832 832 832 832 832 832 831 831 831 831 831 831 831 831 830 829 829 829 828 828 827 825 825 824 823 823 823 822 822 821 820 820 819 819
786 789 792 795 796 798 800 802 803 804 804 804 805 806 807 807 808 810 811 812 812 813 814 815 817 820 821 824 825 826 827 828 829 830 831 832 832 832 832 832 833 833 833 833 833 833 833 833 833 833 833 832 832 832 832 832 832 832 831 831 831 831 831 831 831 830 829 828 828 828 827 827 826 826 825 824 823 822 822 821 821 820 819 818 818
789 791 793 795 797 798 799 801 802 803 803 804 805 806 806 806 807 808 810 811 812 813 813 814 816 818 820 823 825 826 826 827 828 829 830 831 831 831 831 832 832 832 832 832 832 833 833 833 833 833 833 833 833 833 832 832 832 832 831 831 831 831 831 831 831 830 829 828 827 827 827 827 826 825 825 824 823 822 821 820 820 819 818 817 816
791 793 795 797 798 798 799 800 802 803 803 804 805 806 805 805 806 807 809 810 811 812 812 813 814 816 817 819 821 823 824 825 827 829 829 829 829 829 830 830 831 831 831 831 832 832 833 833 833 833 833 833 833 833 833 833 833 832 832 832 831 831 831 831 830 830 829 828 827 827 827 826 825 824 824 823 822 821 820 819 818 817 817 816 815
792 794 796 799 800 800 800 801 802 804 804 804 804 805 805 805 805 806 807 808 809 810 810 811 812 813 814 815 817 820 822 823 825 827 828 828 827 827 827 828 829 830 830 831 831 831 832 832 833 833 833 833 833 833 833 833 833 833 833 832 832 831 831 831 830 830 829 828 827 826 826 825 824 823 823 822 820 819 819 818 817 816 815 814 814
792 794 796 798 799 799 799 801 802 803 803 803 803 804 804 804 804 805 806 807 808 809 809 810 811 811 812 814 816 818 819 821 822 822 823 823 824 824 824 825 826 827 829 829 830 830 830 831 832 832 833 833 833 833 833 833 833 833 833 832 832 832 831 831 830 830 829 828 827 826 825 825 823 822 822 821 820 818 816 815 815 814 813 812 812
793 794 796 796 797 798 799 801 801 802 802 802 802 803 803 803 803 804 805 805 806 806 807 808 809 810 811 812 814 816 817 818 819 819 819 819 820 822 822 823 823 824 825 826 828 828 829 830 831 831 832 833 833 833 833 833 833 833 833 833 832 832 831 831 830 830 829 828 827 826 825 824 823 822 821 821 819 817 816 814 812 812 812 811 810
794 795 796 797 798 798 799 800 801 801 801 801 802 802 801 802 802 802 803 803 804 805 806 807 807 808 809 810 811 813 814 814 815 817 817 817 817 818 820 820 819 820 821 823 825 826 827 828 829 830 831 832 832 832 832 832 832 832 832 832 832 831 831 830 830 829 829 828 827 825 824 823 822 821 820 819 818 817 816 815 813 811 810 809 808
795 796 797 798 798 799 799 800 800 801 801 800 801 801 801 801 801 801 802 802 803 803 804 805 806 806 807 808 809 810 811 811 812 813 815 815 816 817 817 817 817 818 819 820 822 823 825 826 827 829 830 830 831 831 831 832 832 832 832 831 831 831 830 830 829 829 828 827 826 825 824 822 821 820 820 819 819 817 816 815 813 810 809 807 807
795 796 797 798 798 799 799 799 800 800 800 800 800 800 800 800 800 800 800 800 801 802 802 803 804 804 805 806 807 807 808 808 809 811 812 813 814 814 815 816 817 817 817 818 819 820 822 823 825 827 828 829 830 830 830 831 831 831 831 831 830 830 829 829 828 828 827 826 825 825 823 822 821 821 820 819 818 817 815 814 812 810 809 806 805
796 796 797 797 798 798 798 798 799 799 799 799 799 799 799 799 799 799 799 799 800 800 801 802 802 803 803 804 805 805 806 806 807 808 810 811 811 812 813 814 815 815 815 815 816 818 819 820 821 824 826 827 828 829 829 830 830 829 830 829 829 829 828 828 827 827 827 826 825 824 823 822 820 820 819 818 817 816 815 813 812 810 809 808 805
796 797 796 797 797 797 797 797 797 798 798 798 798 798 799 799 799 799 799 799 799 799 800 800 801 801 802 802 803 804 804 804 805 807 808 808 809 809 810 811 812 814 814 814 815 816 817 818 819 821 823 825 826 827 828 828 828 828 828 828 828 828 828 827 827 826 826 825 824 823 822 821 820 819 819 817 816 815 814 813 812 810 809 808 806
797 797 797 797 797 797 797 797 797 797 797 798 798 798 798 798 799 799 799 799 799 799 800 800 800 800 800 801 801 802 803 803 804 805 806 806 807 807 807 808 809 811 812 813 813 814 815 817 818 819 821 823 824 825 826 826 827 827 827 826 826 826 826 826 826 825 825 824 823 822 821 820 819 818 818 817 815 814 812 811 810 809 808 806 804
797 797 797 797 797 797 797 797 797 797 797 797 798 798 798 798 799 799 799 798 798 798 799 799 799 800 799 799 799 800 801 802 803 803 803 804 805 805 806 807 807 808 809 810 812 813 815 816 817 818 820 822 823 824 824 825 825 825 825 825 825 825 825 825 825 824 823 823 821 820 820 819 818 816 816 816 814 813 811 809 808 807 806 804 802
797 797 797 797 797 797 797 797 797 797 797 797 798 798 798 799 799 799 799 798 798 798 798 798 798 798 799 799 799 799 799 800 801 801 802 802 803 804 805 806 806 807 809 810 811 813 814 815 816 818 820 821 822 822 823 823 823 823 823 823 823 823 823 823 823 822 822 821 820 819 818 817 816 815 814 814 812 811 810 808 807 805 803 801 799
797 797 797 797 797 797 797 797 797 797 797 797 798 798 799 798 799 799 798 799 798 798 798 797 797 797 797 798 798 798 798 798 798 799 800 801 802 803 804 805 806 807 808 810 811 812 813 814 816 817 819 820 821 821 822 822 822 822 821 821 821 821 820 821 821 820 820 819 818 817 816 815 814 813 812 811 810 809 807 805 805 803 801 798 796
797 797 797 797 797 797 796 796 796 796 796 797 797 797 798 798 798 798 798 798 798 798 798 797 796 796 796 797 796 796 796 796 797 798 798 799 801 802 803 804 805 806 807 809 810 811 813 814 815 816 817 818 819 819 819 820 820 820 819 819 818 818 818 818 818 818 818 817 816 815 814 813 812 811 810 809 808 807 805 802 802 802 800 797 795
797 796 796 796 796 796 796 796 796 796 796 796 796 796 797 797 797 797 797 797 797 797 797 796 796 796 796 796 795 795 795 795 795 796 797 798 800 801 802 803 804 806 807 809 810 810 812 813 813 814 815 816 817 817 817 817 818 817 817 816 816 816 816 816 815 815 815 814 813 813 811 810 809 808 807 806 805 805 803 800 800 800 798 796 794
796 796 796 796 796 796 796 795 795 795 795 795 795 795 795 796 796 796 796 796 796 796 795 795 795 795 795 795 795 795 795 795 795 796 796 797 799 800 801 803 804 805 807 808 809 809 810 812 812 812 812 814 815 815 815 815 815 815 815 815 814 814 814 813 813 812 811 810 809 809 808 807 806 804 803 802 801 801 800 798 798 798 795 794 793
796 796 796 796 796 795 795 795 795 795 794 794 794 794 794 794 794 795 795 795 795 794 793 793 793 794 794 795 795 795 795 795 796 796 797 797 799 800 801 802 803 805 806 807 808 809 810 810 811 811 811 812 813 813 813 814 814 814 814 813 812 812 811 811 810 809 808 807 806 805 804 803 802 801 800 799 798 797 796 795 795 795 793 791 791
795 795 795 794 794 794 794 794 794 793 793 793 793 793 793 793 793 793 793 794 793 792 792 792 792 793 793 794 794 795 795 796 796 797 797 798 799 800 801 802 804 805 806 807 808 809 809 809 809 810 810 811 811 812 812 812 812 812 812 811 810 809 809 808 807 806 806 804 803 802 801 800 799 798 797 796 795 794 793 792 792 792 791 789 788
793 793 793 793 793 793 793 793 792 792 792 792 791 791 792 792 792 792 792 792 791 791 791 791 792 793 793 794 794 795 796 796 797 797 798 799 800 801 802 803 804 805 806 807 808 809 809 809 809 810 810 810 810 811 811 811 810 810 809 809 808 807 807 806 805 804 803 802 801 800 799 798 797 796 795 794 793 792 790 789 789 788 787 787 786
791 791 791 791 791 791 791 791 790 791 790 790 790 790 790 790 790 790 790 790 789 790 790 791 792 792 793 794 794 795 796 797 798 798 799 800 801 802 803 803 804 805 806 807 808 808 808 808 808 809 809 809 809 809 809 809 808 808 807 807 806 806 805 804 803 802 801 800 799 797 796 795 794 793 792 791 789 789 788 786 786 785 784 783 783
789 789 789 790 789 789 789 789 789 789 788 788 788 788 788 788 788 788 788 788 787 788 789 790 791 791 792 793 794 795 796 797 798 799 800 801 801 802 803 804 804 805 806 807 807 807 807 807 808 808 808 808 808 808 808 807 807 806 806 805 805 804 803 802 801 800 798 797 796 795 794 793 791 790 789 787 786 785 785 784 782 782 780 779 778
787 787 787 788 788 788 787 787 787 787 787 787 786 786 786 786 786 786 786 785 785 785 787 788 789 790 792 793 794 795 796 798 799 799 800 801 801 802 803 803 804 805 805 805 806 806 806 807 807 807 807 807 807 807 806 806 805 805 804 804 803 802 801 800 799 798 796 795 794 793 791 790 789 788 786 785 784 783 782 780 779 778 777 776 775
785 785 785 786 786 786 785 785 785 785 785 785 784 784 785 784 784 784 784 784 783 784 785 787 788 790 791 792 793 795 796 797 798 799 800 800 801 802 803 803 803 804 804 804 805 806 806 806 806 806 806 806 806 805 805 804 804 803 803 802 801 800 799 798 797 796 795 793 792 791 789 788 787 786 784 783 782 780 779 778 776 775 775 773 771
783 783 783 783 783 783 783 783 783 783 783 783 782 783 783 782 782 783 782 783 783 783 785 786 786 788 789 791 792 794 796 797 798 799 799 800 801 802 802 802 803 803 804 805 805 805 805 806 805 806 805 805 805 804 804 803 802 802 801 800 799 798 797 796 795 794 793 791 789 788 787 786 784 783 782 781 779 778 777 776 774 773 772 771 769
781 781 781 781 781 781 781 781 781 781 781 780 780 781 781 780 780 781 781 781 782 782 783 783 784 786 787 790 792 794 795 797 797 798 799 799 800 801 802 802 803 804 804 804 804 805 805 805 805 805 805 804 804 803 803 802 801 800 800 799 797 796 796 794 793 792 790 789 787 785 784 782 781 780 779 777 776 775 774 773 771 770 769 768 766
779 779 779 779 779 779 779 779 779 778 778 778 778 778 778 778 778 778 779 779 780 780 780 781 783 784 786 788 790 792 794 796 797 798 799 799 800 801 802 803 804 804 804 804 804 804 804 804 804 804 804 803 803 802 801 801 800 799 798 797 796 795 793 792 791 789 788 786 784 783 781 779 778 777 775 774 772 772 771 770 768 767 766 764 762
777 777 777 777 778 777 777 776 776 776 776 776 775 775 775 776 776 776 777 777 778 779 780 780 782 784 785 788 789 790 793 795 797 798 799 800 801 801 802 803 804 803 804 804 804 804 804 804 804 803 803 803 802 801 800 800 799 798 797 795 794 793 791 790 789 787 786 784 782 780 778 776 775 773 772 770 769 768 767 766 765 764 762 761 759
776 776 776 776 775 775 774 774 774 774 773 773 773 773 774 775 775 776 776 776 777 779 780 781 782 784 785 788 790 792 793 795 797 798 799 799 800 801 802 803 803 803 804 804 804 804 804 804 804 803 803 802 801 801 800 799 798 797 795 793 792 790 789 788 786 784 783 781 779 777 775 774 772 770 769 767 765 764 763 762 761 760 758 757 755
775 774 774 774 773 772 772 771 770 770 770 770 771 771 772 773 775 776 777 777 777 778 780 782 784 786 787 789 791 793 794 795 797 798 799 800 801 802 802 803 803 803 803 803 804 804 804 804 804 803 802 802 801 800 799 798 796 795 793 791 790 788 786 785 783 781 780 778 776 774 772 770 769 767 765 763 762 760 759 758 757 756 754 753 752
774 773 773 772 771 769 768 767 766 766 767 767 769 769 770 771 773 775 777 778 779 780 782 783 785 787 789 791 793 794 795 796 797 798 799 800 801 802 802 803 803 803 803 803 804 804 804 804 803 802 802 801 800 799 798 797 795 794 792 790 788 786 784 782 780 778 776 774 772 770 768 767 765 763 761 760 758 756 755 754 753 752 750 749 747
773 773 772 770 769 768 767 765 764 764 765 766 767 768 769 770 772 774 776 778 780 782 784 786 787 789 791 793 794 795 796 797 798 799 800 800 801 802 802 802 802 802 803 803 803 804 804 803 802 801 801 800 799 798 797 795 794 792 790 788 786 783 781 779 777 775 773 771 769 767 765 763 761 759 757 756 754 752 751 750 749 747 746 745 743
773 772 771 770 770 769 768 766 765 765 766 767 768 769 771 772 774 775 777 779 781 783 785 787 789 791 793 794 795 796 797 798 798 799 800 800 801 802 802 802 802 802 803 803 803 803 803 802 801 801 800 799 799 797 796 794 793 791 788 786 783 781 779 777 774 772 770 768 766 764 762 760 758 756 754 752 750 749 747 746 745 743 742 741 740
772 772 771 771 771 770 769 769 768 768 769 770 771 772 773 775 776 778 780 781 783 785 786 788 791 793 794 795 796 797 798 798 799 799 800 801 802 802 802 803 803 803 803 803 803 803 802 801 801 800 800 799 798 797 795 794 791 789 787 784 781 779 776 774 772 769 767 765 762 760 758 756 754 752 750 748 747 745 743 742 741 739 738 737 736
772 772 773 773 773 772 772 772 772 772 772 773 774 775 776 777 778 780 781 783 785 786 788 790 791 793 794 795 796 797 798 798 799 800 801 801 802 802 802 802 803 803 803 803 802 802 801 801 801 800 800 799 798 796 794 792 790 787 784 781 779 776 774 771 769 767 764 762 759 757 755 753 751 749 747 745 743 741 740 738 737 735 734 733 732
773 774 775 775 775 774 774 774 774 775 775 776 776 777 778 779 780 781 783 785 786 788 789 790 791 792 794 795 796 797 797 798 799 800 801 802 802 802 802 802 802 802 802 802 802 801 801 801 801 800 800 799 797 795 793 790 787 785 782 779 776 774 771 769 766 764 761 759 756 754 751 749 747 745 743 741 739 737 736 734 733 732 730 729 728
774 775 776 776 776 776 776 776 777 777 778 778 779 779 779 780 781 783 785 786 788 789 790 791 792 793 793 794 795 796 797 798 799 800 801 801 802 802 802 802 802 802 802 802 802 801 801 801 801 800 799 798 796 794 791 788 785 782 779 777 774 771 768 766 763 761 758 756 753 750 748 746 743 742 740 738 736 734 732 730 729 728 727 725 724
775 776 777 777 777 778 778 778 779 779 779 780 781 781 781 782 783 785 787 788 789 790 790 791 792 793 793 794 795 796 796 797 798 800 801 801 802 802 802 801 801 802 802 802 801 801 801 801 801 800 798 797 795 792 790 787 784 781 778 775 772 769 766 764 761 758 756 753 750 747 745 742 740 738 736 734 732 730 729 727 725 724 723 722 720
776 777 777 777 778 779 780 781 781 781 781 781 781 782 783 783 784 786 787 788 789 790 791 792 792 793 794 795 796 796 797 797 799 800 800 801 801 801 801 801 802 802 802 801 801 800 801 801 800 799 798 796 794 791 788 785 783 780 776 774 771 768 765 762 759 756 753 750 747 744 742 740 737 735 733 731 729 727 725 724 722 721 719 718 717
777 778 778 778 779 781 782 782 782 781 781 782 782 782 782 782 783 785 787 788 790 791 791 792 793 794 794 795 796 796 797 798 799 799 800 800 800 800 800 801 802 802 801 800 800 800 801 800 799 798 797 795 793 790 787 785 781 778 775 772 769 766 763 760 757 754 751 748 745 742 739 737 735 733 730 728 726 724 722 720 719 718 716 715 714
778 778 779 780 781 781 782 782 782 782 782 783 783 783 784 784 785 786 788 789 791 791 792 792 793 794 795 796 796 797 797 798 799 799 799 800 800 800 801 801 801 801 800 800 800 800 801 800 799 797 796 794 792 790 787 784 781 778 774 771 768 765 762 759 755 752 749 746 743 740 737 735 733 730 728 726 723 721 719 718 716 715 713 712 711
779 779 780 781 781 782 783 783 783 784 784 784 785 785 786 787 788 789 790 791 792 792 792 793 794 795 796 796 797 798 798 798 799 799 800 800 800 800 801 801 800 800 800 800 800 800 800 799 798 796 795 793 791 789 787 784 781 777 774 771 767 764 761 757 754 751 748 745 742 739 736 733 731 728 726 724 721 719 717 715 714 712 711 710 710
779 780 781 782 782 783 784 784 784 785 785 786 786 786 787 788 789 789 790 791 791 792 792 794 794 795 796 797 797 798 799 799 800 800 800 799 800 800 800 800 800 800 800 800 800 800 799 798 797 795 794 792 790 788 786 783 780 777 774 771 767 763 760 757 754 751 747 744 741 738 735 732 730 727 725 722 720 717 715 713 712 711 710 709 708
780 781 781 782 783 784 784 785 785 786 786 786 787 788 788 789 789 790 791 791 792 793 794 795 795 796 797 797 798 799 799 800 800 800 800 800 800 800 800 799 800 800 800 800 800 799 799 797 796 795 793 791 789 788 786 783 780 776 773 770 767 764 760 757 754 751 747 744 741 738 735 732 729 727 724 721 719 716 714 712 711 709 709 708 708
781 781 783 784 784 785 785 786 786 787 788 788 789 789 790 791 791 792 792 793 793 794 795 796 796 797 798 798 799 799 800 801 801 801 800 800 800 800 800 799 800 800 800 800 800 799 798 797 796 794 793 791 789 787 785 782 779 776 773 770 767 764 761 758 754 751 747 745 742 739 736 733 730 727 724 721 719 716 714 712 710 709 708 708 708
782 783 784 785 786 786 787 787 788 789 790 790 790 791 792 792 793 793 793 794 795 795 796 797 797 798 798 799 799 800 801 801 801 801 801 800 800 800 800 800 800 800 800 800 799 799 798 797 795 794 792 791 789 787 785 782 778 775 772 769 766 764 761 758 755 751 748 745 742 739 736 733 730 727 725 722 719 717 714 713 711 710 709 708 708
784 785 786 787 787 788 788 789 790 791 791 792 792 792 793 794 794 795 795 796 796 797 798 798 799 799 799 800 800 801 801 801 801 801 801 801 800 800 800 800 800 800 800 799 799 798 797 796 795 793 792 790 789 787 784 781 778 775 771 768 766 764 761 758 755 752 748 745 742 739 737 734 731 728 726 723 720 718 716 714 713 711 710 710 710
786 787 787 788 788 789 790 790 791 792 792 793 793 794 794 795 796 797 797 798 798 799 799 800 800 800 800 800 801 801 801 802 802 802 801 801 801 800 800 800 800 800 800 799 799 798 797 796 794 793 791 790 789 787 784 781 778 775 772 769 766 764 761 758 755 752 749 746 743 740 737 735 732 729 727 724 722 720 718 716 715 714 712 712 712
788 789 789 789 790 791 791 792 793 793 794 794 795 795 796 797 798 798 799 799 800 800 801 801 801 801 801 801 802 802 802 802 802 802 802 801 801 801 801 801 800 800 800 799 798 798 797 795 794 793 791 790 788 786 783 781 778 775 772 769 767 764 762 759 756 753 750 747 744 741 739 736 733 731 728 726 724 722 720 719 717 716 715 715 714
Wind_Speed
22 22 18 16 16 13 13 13 14 15 14 14 16 19 18 16 14 13 12 13 13 13 13 13 12 11 11 11 12 12 12 10 9 10 9 8 8 9 10 9 8 9 9 6 6 6 6 7 5 3 4 6 6 3 1 1 2 3 2 1 2 1 1 2 3 7 12 13 14 16 16 16 16 15 16 18 18 18 17 17 18 19 19 19 18
20 21 19 18 18 16 14 13 14 14 12 12 12 15 17 17 16 14 12 12 12 13 13 13 13 11 11 11 12 13 14 12 11 11 11 10 10 10 11 11 10 11 11 9 8 7 6 7 6 5 5 5 4 3 2 3 2 2 2 1 2 3 3 5 5 7 12 15 15 15 14 14 15 16 17 19 20 19 18 17 18 19 19 19 19
14 14 16 17 17 15 13 12 12 12 11 10 8 10 12 13 13 14 14 13 11 10 10 13 14 12 11 10 12 14 16 16 14 13 13 13 12 13 13 13 12 12 13 12 11 9 8 8 7 7 7 4 3 3 3 2 2 1 2 1 2 3 4 5 6 7 10 14 14 14 15 16 17 18 19 19 19 19 19 19 19 19 19 19 19
11 10 11 12 11 12 12 11 10 10 10 9 8 8 9 10 11 13 13 12 12 9 7 11 14 14 12 12 15 16 15 15 15 15 15 15 15 15 16 15 14 14 14 14 14 12 11 10 8 8 8 6 3 3 2 1 1 2 3 2 3 4 4 4 6 7 9 12 15 17 17 18 19 19 19 19 19 18 19 19 19 20 19 18 19
11 10 10 9 9 10 9 8 9 9 9 9 9 8 7 7 9 11 11 11 12 11 9 9 11 12 13 13 15 16 14 13 13 14 17 19 18 17 18 18 17 16 15 14 15 14 14 14 11 9 9 7 4 3 3 3 4 3 4 4 5 6 7 7 8 9 10 13 17 18 18 18 20 20 19 20 21 21 20 20 20 21 20 19 19
9 9 9 9 8 9 9 9 10 11 11 12 13 13 11 10 10 12 13 14 14 14 15 14 13 14 16 17 17 16 15 15 16 17 19 22 22 21 19 20 20 19 17 15 16 16 16 16 13 11 10 9 7 6 5 6 6 6 5 6 6 7 8 9 9 10 11 13 16 18 19 19 20 20 19 20 21 22 22 23 22 21 21 20 20
10 10 9 9 9 8 9 9 10 11 12 12 13 13 13 13 14 15 15 15 14 15 15 15 16 16 17 20 22 20 17 17 19 20 20 21 24 24 23 21 21 21 19 17 17 16 15 15 14 12 11 10 8 8 8 8 8 7 6 7 8 9 10 11 11 11 12 14 16 17 18 19 19 19 18 18 19 19 20 22 22 21 21 21 22
11 11 10 9 9 9 8 8 7 6 6 8 9 10 10 11 12 14 15 15 15 15 15 15 15 15 15 18 22 22 21 21 21 21 21 21 23 24 26 26 23 22 20 18 18 17 15 15 15 13 12 11 10 10 10 10 10 8 8 9 11 12 12 12 12 12 12 14 16 17 18 19 20 19 19 19 18 18 19 20 21 22 23 22 22
9 8 9 9 8 7 7 7 5 3 3 4 5 5 5 5 6 8 10 11 13 15 16 17 18 18 16 17 19 21 21 23 23 22 22 23 22 21 24 28 27 23 21 19 18 18 17 16 14 13 13 13 12 12 12 11 11 10 11 12 12 12 12 13 13 13 14 14 16 17 18 19 21 21 20 19 17 18 20 22 22 24 26 26 24
6 6 6 6 5 4 4 4 3 2 2 2 2 3 3 3 4 5 6 7 8 10 12 14 17 19 18 18 19 20 21 23 24 23 22 23 23 20 20 23 25 24 22 21 20 19 19 18 16 14 14 14 13 13 13 12 12 13 14 13 11 10 11 12 13 13 14 15 17 17 16 18 20 20 19 20 20 21 23 23 24 25 26 25 24
3 3 4 4 2 2 2 2 1 0 0 1 1 1 2 3 5 6 7 9 9 8 8 9 10 12 14 16 18 19 20 22 22 22 21 21 23 22 20 19 22 24 23 22 22 20 19 19 18 17 16 15 14 14 13 13 13 14 13 11 10 10 10 11 12 13 14 15 17 17 16 18 21 20 20 22 22 22 23 24 24 23 21 18 18
3 2 2 2 2 3 3 2 2 2 2 2 3 4 4 4 4 4 5 7 8 10 10 10 9 9 10 13 14 15 17 18 19 19 18 18 20 22 22 20 20 22 23 23 23 21 20 19 18 17 16 14 14 14 14 14 14 13 12 11 10 10 11 12 14 15 16 18 19 20 20 21 22 23 22 22 21 22 24 25 24 23 21 18 17
1 0 1 2 2 3 3 2 2 3 2 2 3 5 5 6 6 6 6 6 6 7 9 10 12 12 12 13 13 14 14 14 14 15 16 17 18 20 21 20 20 21 23 23 22 22 21 19 17 15 13 13 13 13 12 13 13 12 12 11 10 10 10 11 12 14 17 19 21 22 23 23 24 24 23 22 23 25 26 26 25 23 22 22 23
3 2 1 0 1 2 3 3 3 2 2 2 3 4 5 6 7 8 9 9 9 9 9 9 10 12 14 16 16 15 13 12 12 14 15 15 16 17 17 17 19 22 23 22 22 21 20 18 16 13 12 11 10 10 10 11 11 11 11 10 10 9 10 12 14 15 16 18 20 22 22 22 23 24 24 23 25 27 26 25 25 25 25 27 30
4 2 2 1 1 2 3 4 4 3 2 3 4 5 6 7 8 8 9 10 11 12 13 13 13 13 14 15 16 16 14 13 14 15 14 14 14 14 14 15 19 21 20 20 19 18 17 16 14 13 11 10 9 10 11 11 12 13 13 13 13 13 14 16 17 17 17 17 19 21 20 19 19 20 20 21 23 24 24 25 25 27 30 31 31
4 4 4 3 3 4 5 4 3 2 2 3 5 6 7 8 9 9 9 9 10 11 13 14 15 16 16 16 15 16 16 16 15 14 13 14 14 14 14 17 19 19 18 18 17 15 14 13 12 10 9 10 11 11 12 12 14 15 16 16 16 17 18 19 17 15 15 16 17 18 17 16 16 17 18 19 20 21 22 24 25 26 28 27 25
6 6 6 5 4 5 5 5 5 4 4 5 6 7 8 8 9 9 9 10 11 12 13 13 14 15 16 16 15 15 16 16 14 13 12 13 15 16 16 17 18 18 16 14 12 10 8 8 7 8 9 11 11 11 12 12 14 15 15 15 16 16 17 16 15 13 14 16 17 17 17 18 19 21 21 22 22 22 23 24 24 23 23 20 19
7 7 7 7 6 7 7 7 7 7 6 6 7 7 8 8 8 9 9 10 11 11 13 13 13 13 14 14 13 13 14 13 12 12 12 13 15 16 16 17 16 14 12 10 9 8 7 7 7 8 10 10 11 11 12 13 14 14 13 13 13 14 14 14 15 16 17 19 20 21 23 25 26 28 28 29 29 28 27 27 25 24 22 18 17
11 10 10 9 9 9 9 9 9 10 10 10 10 11 13 13 12 11 11 11 12 12 12 11 10 10 10 10 9 9 10 9 9 11 12 14 15 16 16 16 14 12 12 12 11 10 8 7 7 7 7 8 9 10 11 12 12 11 11 12 13 15 16 17 19 20 21 22 22 23 24 24 25 26 26 26 27 27 27 27 25 24 23 22 20
12 12 11 11 11 11 11 11 11 11 11 11 11 12 13 13 12 11 11 11 11 11 10 7 5 5 4 4 4 5 7 8 11 12 14 15 15 14 14 14 14 13 13 13 12 9 6 4 3 3 4 5 6 8 8 8 9 10 12 14 17 18 18 18 18 19 19 20 20 21 21 20 19 19 19 20 20 21 22 22 22 23 24 24 23
13 14 14 14 14 13 13 12 11 11 11 11 11 11 11 10 10 9 8 8 8 8 6 5 4 3 2 3 4 6 8 10 13 14 15 15 14 13 13 13 13 12 11 9 8 5 1 2 3 3 4 4 5 6 7 9 11 14 16 16 16 16 15 15 16 16 18 20 21 21 20 19 17 17 18 18 17 17 18 19 19 21 22 23 23
16 16 15 15 15 15 14 13 14 15 16 15 15 15 14 14 13 11 9 8 7 5 5 5 4 4 4 4 6 9 11 12 14 14 14 13 12 12 11 11 9 8 6 4 2 0 1 3 4 3 3 5 6 9 11 14 15 15 14 13 12 12 13 14 16 18 20 21 22 22 21 20 20 20 19 18 17 17 18 18 18 19 21 22 23
14 13 14 16 17 17 17 17 17 17 17 16 16 16 16 16 16 16 15 12 8 8 9 8 7 6 7 8 9 11 13 13 13 13 12 11 11 10 8 7 6 4 3 1 1 1 1 2 3 3 6 8 11 14 15 15 14 11 10 10 11 13 14 16 17 19 20 21 21 22 22 21 21 21 21 21 21 20 19 19 19 20 21 22 23
11 12 14 16 16 14 12 12 12 11 11 12 11 12 14 15 15 16 16 15 12 12 13 12 10 10 11 12 12 13 13 13 12 11 10 9 8 7 6 4 3 2 3 3 2 2 1 2 4 7 10 12 14 15 14 12 10 9 10 11 12 13 14 15 16 18 19 20 20 20 20 20 21 21 22 23 23 23 23 23 22 23 23 24 24
13 13 13 13 12 11 11 13 14 14 13 13 13 14 16 17 17 16 15 16 15 16 17 15 13 14 15 15 15 15 14 13 12 10 9 8 7 6 5 5 5 5 4 3 1 0 2 5 8 10 11 11 10 10 9 9 9 9 10 11 11 11 12 14 15 16 17 18 18 18 18 19 20 21 22 23 24 24 24 24 24 24 24 25 26
14 12 11 11 12 13 15 16 17 17 15 15 15 15 15 16 15 11 10 13 15 17 18 16 15 16 17 17 18 17 15 13 12 11 10 8 8 8 6 5 5 4 2 1 2 4 6 7 8 7 6 7 7 8 8 7 7 7 8 9 10 12 14 15 17 18 18 19 19 20 20 21 21 21 21 21 21 22 22 23 23 23 22 24 25
11 11 11 12 14 15 15 15 15 15 14 13 13 13 12 11 10 8 8 11 15 18 18 18 18 19 19 19 19 18 16 15 13 12 11 10 8 7 5 3 3 2 1 3 5 5 5 4 5 6 7 7 8 9 9 9 9 9 11 13 15 17 18 19 20 21 21 22 22 22 22 22 22 23 22 22 21 21 21 21 22 22 22 22 22
10 11 11 11 12 13 14 15 15 15 15 14 13 12 11 11 12 11 11 11 14 17 19 20 20 21 21 20 20 19 17 15 13 12 11 10 8 6 5 4 3 2 3 4 4 3 5 6 7 7 8 9 10 11 11 11 12 14 16 17 18 19 19 20 21 21 22 22 22 23 23 23 23 23 23 23 23 23 23 23 23 23 22 21 21
10 11 11 11 12 12 13 14 14 13 13 12 11 11 12 12 13 13 13 13 14 16 19 21 20 19 20 21 22 22 18 14 12 11 9 8 7 6 6 5 6 6 7 7 7 7 7 8 8 9 10 11 12 12 13 14 15 16 17 17 18 19 19 20 20 21 22 23 23 24 24 24 24 24 24 24 24 25 25 24 24 23 22 21 21
9 10 11 13 15 16 17 17 16 13 11 10 11 10 9 10 11 11 11 12 14 15 16 16 17 19 20 20 21 21 18 14 12 10 9 8 7 7 8 8 9 10 10 9 8 7 8 9 10 10 11 12 12 12 14 16 17 17 17 18 18 19 19 20 21 22 22 23 24 24 24 24 24 24 24 23 24 25 25 24 23 23 22 22 21
8 10 12 14 16 18 20 20 19 15 12 12 13 12 10 9 9 9 9 11 13 13 13 14 17 20 21 20 18 17 17 14 12 10 9 9 9 10 11 10 9 9 8 7 7 8 9 10 10 11 11 11 12 13 15 17 17 18 18 20 21 22 22 22 22 23 23 24 24 24 24 24 23 23 23 24 24 24 24 24 23 22 22 22 22
7 8 10 12 15 17 19 20 19 16 14 15 16 16 15 14 14 13 12 13 14 15 16 18 18 18 18 19 19 18 16 14 12 11 12 12 11 10 9 7 5 5 5 6 7 9 9 9 10 11 11 11 12 14 16 18 19 19 20 21 23 24 24 25 25 25 25 25 25 25 24 24 24 24 24 24 24 24 23 22 22 22 22 22 22
4 3 4 6 8 11 15 17 17 15 16 18 18 18 20 22 22 21 20 19 19 19 18 18 18 17 17 18 18 17 16 16 15 15 14 12 10 7 4 2 1 1 3 5 7 8 8 8 10 10 11 12 13 16 18 18 19 20 21 22 24 25 26 26 26 26 26 25 25 25 25 25 25 25 24 24 24 23 22 22 22 21 21 21 21
2 1 3 4 4 2 2 5 7 10 15 18 19 19 21 24 26 26 24 23 22 22 22 21 19 19 19 18 18 18 18 18 17 15 13 11 8 7 6 4 2 1 2 4 6 6 6 8 9 10 12 14 15 17 18 19 20 22 23 24 25 25 26 27 26 25 25 25 25 25 25 25 25 25 25 24 23 23 22 22 21 21 20 20 20
6 6 6 8 10 10 10 11 14 17 19 20 22 24 24 24 25 26 26 25 24 24 25 24 21 20 20 19 19 19 19 18 15 13 12 10 9 8 10 9 8 7 7 7 7 7 7 9 11 12 14 16 16 17 18 20 22 23 24 25 26 26 26 26 25 25 26 26 25 26 26 26 26 25 25 24 23 22 22 22 21 21 21 20 20
9 10 10 12 13 14 15 17 18 20 21 22 24 25 26 26 26 26 26 26 25 23 23 22 20 19 18 18 18 18 16 14 12 11 9 8 7 8 9 11 11 11 10 9 8 8 9 11 12 13 14 15 17 18 19 21 23 24 25 25 26 26 26 25 25 26 26 26 26 26 26 26 26 25 25 24 23 23 23 22 22 22 22 22 21
11 12 12 14 15 15 17 19 20 20 21 22 23 24 24 25 26 26 26 25 24 22 21 20 18 17 16 16 16 15 13 11 9 7 5 6 7 9 10 10 10 11 10 10 9 9 10 12 12 12 13 15 16 18 20 22 24 25 25 25 25 25 25 26 26 26 26 26 26 26 25 25 26 25 25 24 23 23 23 22 22 22 22 22 22
11 11 12 14 13 14 16 19 19 19 19 19 19 19 20 22 23 23 23 23 22 22 21 19 18 17 15 14 13 12 10 8 5 4 4 7 9 11 11 10 10 11 11 10 10 10 11 12 12 12 13 14 16 19 22 24 25 25 26 26 26 26 25 26 26 26 26 26 26 26 26 26 26 25 24 24 24 24 23 22 22 21 21 21 20
9 9 10 10 9 11 16 19 18 17 17 16 15 17 19 20 20 20 19 18 18 18 17 16 15 14 12 11 9 7 5 4 6 8 10 12 12 11 10 11 11 11 11 10 10 11 11 10 11 13 14 16 18 22 24 25 25 26 26 26 26 26 26 26 27 27 27 27 27 27 26 26 26 26 25 24 24 24 24 23 22 22 21 20 20
10 10 8 7 7 11 16 17 14 12 12 11 12 14 16 16 15 16 17 17 15 15 14 13 11 10 10 8 6 6 7 11 14 15 14 13 12 10 10 11 11 11 10 10 10 10 10 10 11 13 15 17 20 23 25 25 26 26 27 27 26 27 27 27 27 27 28 28 28 27 26 26 26 26 25 25 24 24 24 24 23 23 23 22 22
11 10 7 6 8 11 12 10 7 6 7 7 8 10 10 10 11 16 19 19 17 16 14 11 10 10 9 8 9 12 15 17 17 15 13 12 11 11 11 11 10 10 9 9 10 9 9 9 11 13 15 18 21 23 25 25 26 27 28 28 27 27 28 28 28 28 28 28 28 27 27 26 26 25 25 25 25 25 24 24 24 23 23 23 22
11 9 9 10 10 10 10 8 9 12 14 13 13 15 16 15 17 21 23 22 20 19 17 14 13 12 11 11 14 16 17 17 16 15 14 13 11 11 10 9 9 9 10 10 9 9 9 9 10 13 15 18 20 22 24 26 27 27 28 28 27 27 28 28 28 29 29 28 28 27 27 26 26 25 24 24 24 24 23 23 23 22 22 22 21
11 9 11 12 11 11 12 13 14 16 18 18 20 22 23 22 23 24 24 22 20 20 18 17 17 16 15 15 16 17 17 16 15 14 12 11 9 9 8 7 7 8 8 8 8 8 8 9 10 13 15 17 19 21 23 25 27 27 28 27 27 27 28 28 29 29 29 29 28 27 27 26 25 24 23 23 23 22 22 21 21 21 20 20 19
11 10 11 11 12 13 14 14 14 16 18 19 21 22 24 24 24 23 22 21 18 16 16 16 16 17 17 16 15 15 15 13 12 10 9 8 7 6 6 5 5 6 7 8 7 6 6 8 11 13 15 17 18 20 24 26 26 27 28 27 27 28 28 29 29 29 28 28 27 26 25 25 24 22 21 21 20 20 19 18 18 18 16 15 14
11 10 10 11 13 15 15 15 16 16 17 17 19 19 20 22 22 21 20 19 18 17 18 18 17 17 17 16 15 15 14 13 11 10 9 8 7 6 6 6 6 7 7 7 6 5 6 8 11 14 16 18 18 20 24 28 27 26 27 27 26 27 29 29 28 28 27 26 24 23 23 23 22 20 20 19 18 17 16 14 14 13 12 11 10
9 9 11 13 15 16 16 16 16 16 16 17 18 19 19 19 20 19 19 18 18 18 19 18 17 16 16 16 15 15 14 13 11 10 9 8 7 6 7 6 8 8 7 6 5 6 8 10 12 14 17 18 17 19 25 30 28 26 27 26 24 26 28 28 27 26 26 24 22 21 22 21 20 19 18 17 16 14 12 11 10 9 8 7 7
11 13 15 16 16 17 17 17 18 18 18 18 18 18 18 18 18 18 19 19 19 18 17 16 16 16 15 15 14 14 13 13 11 10 9 8 7 6 6 6 7 7 7 6 7 8 9 12 13 15 17 18 16 18 26 30 27 25 26 25 23 24 26 26 26 26 25 23 20 19 20 20 19 19 18 16 15 13 11 9 9 7 6 5 4
19 20 19 18 18 18 18 18 18 18 17 18 18 18 18 18 18 19 19 20 20 20 19 17 16 15 14 13 12 11 11 11 10 8 7 7 6 6 6 7 8 7 7 7 8 9 11 14 15 16 17 16 15 19 27 29 26 24 25 24 23 23 24 25 26 26 24 21 19 18 18 18 18 18 17 16 14 12 10 9 8 7 4 3 1
22 22 21 21 20 19 18 18 18 17 17 19 20 20 19 19 19 19 19 19 19 19 18 16 15 13 12 11 10 9 10 10 9 8 7 6 6 6 6 8 8 7 7 7 8 10 12 15 17 17 16 15 15 21 26 27 25 24 25 24 23 22 23 24 26 26 24 21 20 18 18 18 17 17 16 15 14 12 10 9 9 7 6 4 3
22 22 22 22 21 20 19 19 19 18 18 18 19 19 19 18 18 18 17 17 17 16 15 14 13 12 10 9 8 7 8 9 9 8 6 5 5 5 6 8 7 6 6 6 8 11 14 16 17 17 16 16 18 22 25 25 24 24 24 23 22 21 22 23 25 26 24 22 20 19 18 18 17 16 16 15 14 12 11 10 10 9 9 8 8
22 22 22 22 21 20 19 20 20 20 19 19 19 19 18 18 17 16 16 15 15 14 13 13 12 11 10 8 7 7 6 6 7 7 5 4 4 6 7 8 7 5 5 6 9 12 14 16 17 17 16 17 18 21 24 24 23 23 23 22 20 20 21 22 23 24 25 23 20 19 18 18 18 17 16 15 14 13 11 10 10 10 11 11 11
Wind_Direction
169 178 185 179 168 173 189 194 191 188 186 182 182 185 185 181 176 177 184 194 200 201 204 207 209 209 207 212 221 225 227 227 216 216 224 227 229 230 224 221 212 205 212 209 194 190 171 166 185 190 161 152 143 139 176 174 12 352 346 29 45 43 318 299 278 298 313 318 319 324 332 336 338 339 335 328 324 323 320 318 317 315 314 313 311
168 174 176 177 179 180 185 194 196 192 185 175 174 182 187 187 185 185 186 192 200 206 212 216 214 210 209 217 226 230 232 234 228 221 225 229 230 235 237 233 222 217 222 217 204 206 199 195 211 214 185 167 171 185 180 159 134 38 28 33 7 9 346 316 303 295 300 308 316 321 326 331 327 323 321 317 317 318 316 314 312 311 310 310 309
159 165 166 170 180 183 180 184 188 190 189 188 191 192 192 195 198 202 203 202 204 208 212 209 201 196 201 213 228 236 237 235 231 228 229 229 230 234 238 238 231 226 228 224 215 214 213 210 212 205 201 206 202 180 149 137 143 28 356 1 346 340 336 318 308 300 298 306 315 318 321 322 316 314 315 314 316 316 313 311 309 306 306 308 307
147 153 156 163 172 173 173 179 189 194 194 198 211 213 201 197 200 206 214 219 217 213 204 198 195 197 205 213 222 232 236 230 225 229 232 233 232 231 233 238 237 233 233 230 223 221 220 218 214 209 220 233 217 178 160 179 248 264 268 274 289 302 313 312 313 318 316 311 310 310 314 315 312 313 316 316 315 314 312 310 308 306 304 305 305
151 158 169 186 199 193 185 191 206 215 214 211 220 228 216 203 204 209 221 231 230 229 234 229 216 214 221 225 225 227 230 227 224 229 234 235 234 231 229 232 235 236 237 235 229 225 225 225 221 221 233 238 216 210 237 248 250 252 260 275 280 287 297 300 303 311 314 313 309 307 309 311 310 312 316 318 317 314 312 310 308 308 307 305 304
143 158 171 182 194 199 201 212 224 231 233 231 231 235 235 232 231 229 232 235 235 236 243 247 244 239 238 238 236 232 229 230 235 237 233 231 232 232 230 229 231 233 235 236 234 232 229 226 220 219 227 225 214 220 239 244 251 264 272 279 284 287 294 297 300 303 305 307 306 305 307 310 312 313 317 322 321 317 316 314 312 313 312 311 309
122 136 151 164 174 182 191 207 223 230 234 235 236 238 241 241 238 235 234 233 230 231 236 241 246 248 246 243 241 239 232 233 239 240 237 233 229 229 230 229 228 230 230 230 231 233 231 220 211 209 214 217 221 228 237 246 256 265 270 281 287 288 291 295 298 301 304 307 307 307 311 311 311 314 318 322 319 319 327 330 327 323 320 318 317
117 127 136 151 161 165 167 175 193 208 216 224 228 233 240 242 239 237 238 240 240 239 241 247 252 254 252 245 243 244 241 239 239 240 243 240 230 228 231 230 227 224 221 221 224 226 220 207 201 206 214 223 232 236 242 252 257 257 271 292 296 294 295 297 299 303 305 307 306 307 311 310 309 313 317 321 324 327 332 336 331 326 323 320 316
109 118 126 137 142 147 155 156 157 163 176 198 212 219 227 236 239 242 247 250 252 252 254 258 263 265 262 251 245 247 248 247 245 245 248 244 235 235 236 231 227 222 214 212 215 214 208 201 200 210 221 229 239 245 249 253 254 260 280 297 299 296 299 298 298 302 303 303 303 305 309 307 307 313 318 321 328 328 324 323 322 321 322 320 313
102 101 104 119 126 128 139 148 160 196 218 217 229 243 253 262 265 268 272 266 262 262 261 263 267 268 266 259 253 253 253 252 251 251 253 248 240 239 239 231 226 223 214 205 204 204 203 203 206 215 225 232 241 247 250 250 255 268 282 293 297 297 298 298 300 303 304 304 303 305 307 304 305 311 312 310 314 317 318 321 323 321 322 322 315
97 79 81 93 101 112 130 135 116 74 328 305 302 300 298 289 278 279 285 283 279 271 259 259 266 268 266 261 258 257 258 258 256 255 256 251 242 242 246 237 228 225 217 205 200 198 196 199 205 213 223 233 240 244 247 251 260 274 284 291 295 295 294 295 298 301 300 298 298 300 300 299 301 305 305 306 310 313 314 316 320 322 324 324 316
88 57 62 75 39 41 60 59 29 17 5 357 357 358 358 348 329 313 305 300 295 284 271 266 268 270 268 263 260 261 262 264 264 262 261 256 251 250 248 237 228 226 216 205 200 197 196 199 203 211 221 230 236 240 246 255 268 280 287 290 289 289 290 290 292 294 294 292 292 293 293 293 296 300 301 305 308 309 308 309 311 314 314 312 305
151 243 79 56 16 19 21 0 357 2 357 352 341 336 339 340 337 334 333 333 326 307 289 279 274 273 271 268 267 266 265 269 273 272 269 265 259 252 244 234 228 222 211 203 201 200 199 200 202 208 218 222 226 235 246 259 270 274 275 274 275 277 281 285 288 290 293 292 288 287 290 291 290 293 297 299 300 302 303 303 303 303 303 302 300
267 225 180 37 340 344 331 316 322 330 332 341 336 330 325 319 313 313 314 313 312 315 312 301 292 286 278 272 267 262 260 267 274 274 274 270 261 250 239 227 216 208 202 201 201 200 200 200 199 200 205 210 218 232 247 257 261 262 260 259 261 268 278 288 291 290 293 296 293 293 297 297 293 294 298 297 296 297 296 295 295 296 296 296 297
327 323 307 298 299 307 298 285 276 273 287 306 312 314 312 308 304 303 303 300 298 299 302 302 302 301 296 286 272 257 251 255 261 266 268 265 256 245 227 207 196 193 193 193 192 190 190 191 190 191 199 214 232 245 254 260 261 261 262 264 269 277 287 293 294 293 294 297 297 299 303 304 299 299 299 297 294 293 291 289 290 293 295 294 293
314 307 305 302 298 305 307 300 284 268 278 286 285 288 290 291 296 299 299 298 295 294 294 295 296 296 299 298 285 265 252 251 253 256 255 248 237 226 211 198 191 187 184 183 180 177 179 184 191 204 225 243 253 258 263 267 266 265 267 271 277 283 288 292 293 292 290 289 289 293 297 297 296 295 295 294 293 293 294 293 293 294 295 293 291
297 300 318 328 331 337 344 345 338 328 309 285 271 272 275 278 284 289 292 293 292 293 293 293 292 289 289 293 288 266 249 245 247 248 244 232 220 212 202 192 185 179 174 173 176 178 186 203 218 235 250 254 254 256 260 262 264 267 272 277 281 284 286 288 286 281 277 275 275 279 281 284 288 288 290 291 291 295 300 301 302 302 297 290 286
308 315 325 328 328 327 324 323 325 326 318 302 288 284 284 284 285 286 290 293 293 293 292 289 287 288 288 290 286 264 245 237 235 236 232 222 214 207 195 180 172 169 166 165 171 177 188 211 224 229 234 239 243 248 253 257 262 268 274 278 282 283 284 285 283 281 280 277 275 276 278 281 283 284 285 285 284 288 293 295 298 299 292 285 283
306 303 302 305 309 308 307 306 303 298 295 292 289 286 281 277 278 279 282 286 289 289 288 283 280 280 281 281 274 256 238 221 207 209 209 206 204 199 187 175 166 161 162 161 160 164 175 188 200 213 226 239 251 255 257 261 267 272 281 288 292 293 293 294 294 294 294 293 293 294 294 294 293 292 291 291 288 287 287 289 292 291 285 281 282
290 290 290 293 296 297 299 298 293 288 286 286 287 287 279 270 268 271 272 274 279 280 275 269 264 257 255 257 245 226 213 194 183 186 189 190 191 189 181 173 165 160 162 163 162 163 172 192 216 251 266 269 271 269 270 278 285 292 300 303 304 303 304 304 304 305 307 308 310 312 312 312 310 307 306 306 303 299 292 290 291 289 284 282 279
290 294 295 294 293 291 289 288 291 294 296 294 293 293 290 280 271 266 263 266 272 268 248 226 221 210 194 195 181 174 180 179 176 180 185 184 183 179 171 163 160 161 160 161 165 161 149 327 320 313 301 290 286 289 300 308 309 310 310 310 312 314 316 315 315 315 314 312 312 311 310 310 309 309 311 311 313 314 306 297 292 289 287 286 282
290 295 297 297 295 293 289 289 295 297 295 292 289 288 289 287 276 262 257 265 262 235 200 186 187 173 158 163 162 161 166 170 171 174 178 176 172 172 168 160 159 165 165 167 178 164 3 353 352 326 292 292 298 305 313 316 316 317 318 320 323 324 320 315 313 311 309 308 308 306 303 301 299 300 303 303 306 313 312 305 299 293 290 289 288
287 294 300 300 297 294 291 289 286 282 280 280 280 282 285 285 277 265 257 251 230 197 181 176 175 166 154 153 157 159 163 166 167 167 168 168 168 173 178 174 174 187 194 192 32 56 12 342 334 297 288 298 306 310 315 317 317 320 323 322 321 318 312 309 308 308 308 308 305 301 298 296 292 291 292 293 295 299 300 301 299 296 292 289 288
289 294 298 297 294 293 294 293 289 289 291 290 288 292 291 289 290 278 254 230 205 184 176 174 172 165 157 154 157 161 165 167 167 166 166 170 172 176 181 177 168 158 135 112 101 117 197 295 303 300 301 305 307 310 311 309 308 310 313 315 319 320 318 316 316 315 310 305 299 294 293 292 290 288 289 292 294 294 293 291 291 291 289 289 288
301 297 295 292 294 298 299 299 299 301 303 299 296 296 292 291 296 289 256 224 201 181 172 172 172 167 161 160 162 167 170 168 166 167 170 172 166 159 151 139 128 122 117 114 115 215 278 293 298 300 304 310 314 318 319 317 314 312 313 318 327 332 333 332 330 323 313 304 300 297 298 300 299 299 300 299 295 291 288 285 285 286 286 287 287
305 302 300 298 298 297 296 297 296 295 295 294 289 287 285 285 286 277 241 211 192 175 168 169 170 167 165 166 169 171 171 169 169 167 162 154 146 139 135 131 130 125 113 73 316 312 308 307 311 323 341 354 357 356 356 357 351 339 334 336 338 339 338 334 328 322 314 309 308 307 307 309 310 310 311 307 300 294 291 288 286 285 285 285 285
304 306 307 304 299 294 293 295 295 293 292 291 287 282 278 270 260 242 218 197 181 171 169 172 171 167 165 167 170 170 168 167 166 160 150 144 144 144 142 142 142 136 1 331 326 327 337 359 24 29 24 16 11 9 7 5 359 349 342 338 335 332 327 322 317 314 309 307 306 305 304 305 307 307 309 308 303 300 297 294 290 288 287 287 284
299 298 297 297 296 294 292 291 292 292 291 289 285 278 267 255 247 241 230 211 193 184 182 180 175 170 168 167 168 167 168 170 167 157 149 150 153 153 147 136 118 88 36 9 9 38 58 59 52 37 18 5 360 358 355 349 344 337 332 330 327 323 320 317 315 313 310 307 305 304 303 303 304 304 305 304 301 300 299 295 291 288 287 285 281
289 289 289 293 294 293 290 286 286 289 287 276 264 258 252 243 237 234 229 223 220 213 200 187 180 177 174 171 168 166 165 168 167 158 151 152 155 157 147 122 93 73 61 60 70 74 60 49 45 33 18 7 3 0 357 351 345 339 333 329 326 323 322 320 316 313 311 309 306 304 304 302 301 301 301 299 298 298 298 294 290 287 286 282 277
284 288 291 293 290 287 286 282 279 283 281 257 232 225 224 217 213 217 217 213 214 215 206 191 183 179 173 170 171 169 161 155 154 155 156 155 153 147 136 115 92 77 70 73 75 62 46 45 44 31 17 12 9 5 358 351 346 341 336 331 327 324 322 319 316 314 313 309 306 303 301 300 298 297 296 295 294 295 294 291 287 284 282 278 276
287 291 290 289 286 284 282 280 277 275 265 237 211 191 175 169 172 182 194 197 196 194 188 179 176 173 167 159 156 154 149 145 147 152 152 145 136 131 126 115 97 82 74 72 66 52 44 44 38 26 17 14 11 2 352 345 341 337 334 329 327 325 321 318 317 316 313 309 305 302 299 297 295 294 293 291 291 290 289 287 284 280 277 275 274
291 293 292 289 287 285 281 279 278 269 244 216 197 181 162 140 125 126 140 154 158 156 154 154 155 156 156 150 144 138 135 136 138 137 131 125 122 122 122 117 101 82 63 49 48 51 49 43 35 27 20 14 5 353 345 339 336 334 332 327 324 322 319 318 317 315 312 309 306 303 300 297 295 294 293 291 289 286 285 283 280 277 275 273 270
283 299 315 312 303 291 278 273 271 254 220 194 179 170 159 142 127 119 120 125 129 131 135 140 141 142 145 145 140 132 127 126 126 124 120 116 115 112 112 129 155 69 18 19 36 50 48 37 33 29 17 5 355 345 340 337 334 332 328 324 320 318 318 318 317 314 312 310 307 303 301 298 296 295 293 291 289 286 283 281 280 276 273 271 269
115 77 42 49 52 32 258 237 218 191 175 163 151 142 137 133 128 123 119 118 119 121 124 128 133 136 136 133 127 122 121 122 122 119 113 107 99 81 66 68 94 92 38 34 43 51 45 34 31 21 5 355 349 344 340 336 333 330 327 323 320 318 318 318 316 313 311 309 305 302 300 298 297 295 293 291 288 285 282 280 278 275 271 268 268
109 103 93 91 91 92 98 110 123 128 129 129 127 123 121 122 123 123 122 119 118 119 121 123 128 133 133 130 126 124 125 124 122 117 110 100 86 68 62 71 82 84 78 73 68 60 46 34 27 13 359 352 350 346 340 335 332 329 325 321 318 317 317 317 316 313 311 308 304 301 299 298 296 294 292 290 287 284 282 280 278 276 272 270 269
114 108 105 104 100 96 99 105 111 115 115 117 120 121 122 124 124 124 124 124 122 122 124 126 130 135 136 135 134 133 133 133 129 124 115 96 73 65 73 82 83 80 76 74 67 56 42 30 20 8 356 350 347 343 338 334 331 329 325 322 319 317 317 316 315 314 312 308 305 303 300 298 297 295 293 289 286 284 282 280 279 277 274 272 271
115 112 112 114 107 101 105 110 111 114 117 120 124 127 128 129 130 130 130 130 129 131 134 137 140 141 143 145 144 142 141 141 138 130 112 79 66 74 85 87 83 79 77 69 56 45 36 27 16 2 350 345 342 338 335 334 334 332 329 326 323 320 318 316 315 314 312 309 307 305 301 299 297 296 293 290 287 286 284 281 280 278 274 273 271
121 123 124 124 116 111 118 121 121 122 125 126 131 136 138 140 142 142 142 141 142 145 147 148 147 145 145 149 151 150 150 151 148 132 103 85 80 81 85 87 85 80 72 61 47 37 30 20 7 355 347 343 339 335 333 334 335 335 333 330 327 324 321 319 318 317 314 311 309 307 304 302 300 298 295 291 289 288 286 284 281 279 276 274 270
127 136 135 131 123 125 132 134 132 132 134 135 142 151 155 156 155 151 146 145 147 150 152 154 153 149 146 148 152 153 144 121 110 110 105 97 89 86 87 89 82 70 60 53 44 35 26 14 1 353 348 343 338 337 336 336 336 336 336 333 330 327 325 322 320 318 316 313 311 309 307 304 302 301 298 294 290 289 288 286 284 281 279 276 272
131 141 142 140 140 144 147 147 146 147 151 155 163 169 170 167 162 154 148 146 147 150 153 158 161 161 159 156 149 130 112 107 108 110 108 99 91 89 87 80 70 62 60 57 46 32 21 11 1 354 347 343 341 342 341 339 338 338 337 335 332 329 327 325 322 319 317 315 313 311 309 308 306 304 300 296 294 291 289 287 286 284 280 277 275
135 140 142 145 153 159 163 164 159 153 161 173 173 164 156 154 155 154 149 144 140 139 140 143 148 152 151 142 127 119 118 116 113 109 106 101 94 87 79 71 67 66 62 51 38 27 19 11 0 352 347 347 347 347 346 344 343 342 339 337 335 332 329 328 325 323 320 318 317 315 313 312 310 307 303 300 299 296 293 290 288 286 283 280 278
132 127 123 128 139 152 157 145 118 111 116 120 119 116 116 122 136 143 141 135 130 127 125 124 125 122 117 116 117 118 118 115 111 107 106 105 98 90 82 78 77 73 59 42 32 30 25 13 1 354 351 351 349 348 348 348 347 345 342 338 336 334 332 331 329 327 326 324 323 321 320 318 316 312 308 305 304 301 298 295 292 289 287 284 281
130 120 124 133 136 136 133 121 106 104 108 107 105 106 110 118 128 134 135 133 131 127 121 116 110 102 99 106 114 116 113 110 107 106 105 102 96 87 78 79 88 85 67 48 39 35 28 16 6 359 355 352 351 351 351 350 349 348 345 341 339 337 336 335 334 333 332 330 328 327 325 323 320 317 314 313 310 307 303 299 296 293 291 288 284
130 118 125 134 133 127 124 118 111 110 112 110 108 109 112 117 122 126 127 126 124 119 114 114 111 105 103 106 107 105 101 97 97 99 98 93 87 73 58 70 100 100 77 58 47 38 27 15 6 360 356 354 355 356 355 354 352 351 349 347 344 342 342 341 341 340 339 335 333 332 330 329 327 325 323 322 319 314 309 305 301 298 296 292 282
128 116 121 128 125 121 119 117 114 114 112 109 108 109 109 109 110 111 110 109 106 104 107 112 112 108 106 105 102 98 95 93 95 98 93 85 77 56 45 67 96 93 74 63 55 44 30 13 2 356 354 354 355 357 358 358 357 357 356 356 353 350 349 349 349 349 348 344 341 340 338 336 336 336 334 333 330 324 318 314 309 304 300 294 280
121 118 128 130 123 118 116 116 112 107 101 100 102 104 103 101 98 97 98 101 102 104 106 107 105 102 102 104 104 101 97 95 96 96 89 81 70 46 39 71 96 89 74 71 66 52 32 13 2 358 354 352 353 356 358 359 0 1 2 3 2 0 358 356 354 355 356 353 350 350 349 346 346 347 346 344 343 339 334 328 322 317 309 299 283
117 121 128 127 120 116 115 114 109 103 98 97 98 99 98 95 93 93 94 96 98 101 102 101 100 100 100 102 104 104 99 94 90 87 80 72 58 37 41 75 91 84 77 80 74 52 28 12 7 4 359 355 355 356 356 358 1 3 4 6 7 6 4 1 359 359 359 358 358 359 358 355 355 356 358 359 357 355 355 351 344 340 334 317 289
112 113 114 112 110 109 108 105 102 99 98 98 99 98 95 92 91 91 91 92 93 95 97 98 98 98 98 97 99 102 101 93 82 72 65 55 36 29 53 76 79 78 81 79 65 47 28 15 10 8 4 1 359 354 354 358 3 5 6 8 8 5 6 7 5 3 1 2 4 5 4 5 6 6 7 10 10 11 14 13 7 6 6 349 288
106 106 107 105 103 102 102 101 99 96 95 95 94 93 91 90 88 86 87 87 87 87 89 92 93 93 94 95 96 102 106 98 81 66 59 46 26 29 61 76 75 80 85 73 53 38 25 16 13 13 12 8 359 353 355 1 7 7 8 10 8 4 6 11 11 8 5 4 6 8 8 11 14 14 15 18 21 23 29 34 36 44 57 69 106
94 97 101 101 99 98 100 101 100 100 99 97 94 90 88 86 84 82 83 83 81 80 81 83 83 83 85 88 92 99 109 104 84 67 57 41 22 35 63 70 68 79 88 67 39 27 21 18 19 21 17 7 356 354 359 6 10 10 10 11 9 6 7 11 14 13 10 7 7 10 12 15 19 20 22 26 29 33 41 50 56 66 77 87 101
89 89 91 92 92 93 93 94 94 95 96 94 91 88 86 83 81 81 80 77 76 76 76 75 74 72 70 70 74 82 101 109 92 66 43 24 26 43 54 53 54 69 77 49 27 21 21 21 21 19 10 358 355 359 4 9 12 13 13 14 13 12 12 13 13 15 15 13 12 12 14 18 22 24 26 30 35 39 46 57 65 73 83 91 100